GEFSNGP_500_meanwind_258.txt.gz
Wind_Speed
19 19 19 19 19 20 20 21 21 19 20 19 20 20 20 20 20 20 19 19 19 18 18 18 18 18 18 18 18 17 17 18 18 18 18 18 18 19 19 19 18 19 18 18
20 20 20 20 20 21 22 22 22 22 21 20 21 21 21 22 22 21 21 21 21 21 20 20 19 19 20 20 20 19 19 19 19 19 19 19 19 19 20 21 21 20 20 20
22 22 22 22 21 23 23 23 23 22 21 21 22 23 23 23 23 23 22 22 23 22 22 22 21 21 21 21 21 21 21 21 21 21 21 21 21 21 21 21 22 22 22 22
24 24 24 22 22 23 23 23 23 23 23 23 23 23 24 24 24 24 24 25 24 25 25 24 24 23 24 24 24 23 23 23 23 24 24 24 24 24 24 23 23 24 24 24
25 25 24 23 23 23 23 22 23 23 23 24 24 24 25 26 26 25 26 26 26 26 26 27 26 26 25 25 26 26 25 25 25 26 26 26 26 26 26 26 26 26 27 26
26 27 25 23 24 24 25 24 24 25 25 26 26 26 26 27 27 27 27 27 27 27 27 28 28 28 27 27 27 27 27 27 27 28 28 28 28 28 28 28 28 28 28 28
28 28 27 26 26 26 26 25 26 27 27 28 29 29 28 29 29 29 29 29 29 29 29 30 30 29 29 29 29 29 29 29 29 29 29 29 29 29 30 30 29 29 29 29
27 29 28 28 27 27 28 28 28 28 29 29 29 30 30 30 31 31 30 31 31 31 31 32 32 32 31 31 31 31 31 31 31 31 31 31 31 31 31 31 30 30 30 30
28 28 28 29 30 30 30 30 29 30 30 30 30 30 31 32 32 32 32 32 33 33 33 33 34 34 34 33 33 33 33 33 32 32 32 32 32 32 32 32 32 32 32 31
30 29 29 29 30 31 32 32 32 32 32 32 32 32 32 32 32 33 33 33 33 34 34 34 35 35 35 35 35 35 35 34 34 34 33 33 33 33 33 33 33 34 33 33
30 31 32 31 32 33 33 33 33 34 35 35 35 34 34 33 33 33 33 33 34 35 35 35 35 35 36 36 36 36 35 35 35 35 35 35 34 34 34 34 35 35 35 34
32 32 34 33 34 34 34 34 35 36 36 36 36 36 35 35 34 34 34 34 34 35 36 36 36 37 37 37 37 37 36 37 37 37 37 37 37 36 36 36 36 36 36 35
34 34 34 34 35 35 36 35 35 35 35 35 35 36 35 35 35 34 34 35 35 36 36 36 37 37 38 38 38 38 38 38 38 39 39 38 38 38 38 37 37 37 37 37
35 35 36 36 36 36 36 36 35 35 35 36 35 36 35 35 35 36 36 36 36 36 36 37 38 38 38 39 39 38 39 39 39 39 39 39 39 39 39 39 38 38 38 38
34 35 36 36 36 36 36 35 35 35 35 36 36 36 35 35 36 36 36 36 36 37 37 37 37 37 38 38 39 39 39 39 39 39 40 40 40 40 39 40 40 39 39 39
34 34 35 35 35 35 35 36 36 36 36 36 36 36 36 37 37 37 37 37 37 38 38 37 37 37 38 38 38 39 39 39 39 40 40 40 40 39 39 39 40 40 40 40
33 34 34 34 34 35 35 36 36 37 37 37 37 37 37 37 38 38 38 38 38 38 38 38 38 38 38 38 38 39 39 39 39 39 39 39 39 39 39 39 39 39 39 39
34 34 34 33 34 34 35 36 37 37 37 37 37 37 37 38 38 38 38 38 38 38 38 38 38 38 39 39 39 38 38 38 38 39 39 39 39 39 39 39 39 39 38 38
34 34 34 34 34 35 35 36 36 36 35 36 37 37 37 37 37 37 37 37 37 37 37 38 38 39 39 39 39 38 38 39 39 39 39 39 39 38 39 39 40 39 39 39
34 34 34 34 34 34 35 35 35 35 35 35 36 37 37 38 38 38 38 38 38 38 38 38 39 39 39 39 39 39 38 38 38 38 39 39 39 39 39 39 39 40 40 40
33 33 33 34 34 34 34 35 35 34 35 35 36 36 37 38 37 37 38 37 38 38 39 39 39 39 39 39 39 39 38 38 38 38 38 38 38 39 39 40 40 40 40 40
33 33 33 33 33 34 34 34 35 35 35 36 36 37 38 38 37 37 37 37 37 38 39 39 39 39 39 38 38 38 38 37 37 37 37 37 38 39 39 39 40 39 39 39
32 32 32 33 34 34 35 35 35 36 36 36 36 37 37 37 37 37 37 37 38 37 38 38 39 38 38 37 37 37 36 36 36 36 37 37 38 38 37 37 37 37 36 36
32 33 34 34 35 35 35 35 35 36 36 36 37 37 37 36 37 37 37 37 37 37 38 38 38 37 37 36 36 36 35 35 35 35 36 36 35 35 35 34 34 34 33 33
33 33 34 34 35 35 35 36 36 36 36 37 37 36 36 37 36 36 36 37 37 37 38 38 38 37 36 35 34 34 34 34 34 35 34 34 33 33 33 33 32 32 31 31
33 34 34 35 35 35 35 36 35 35 36 36 36 36 36 36 36 36 36 36 36 36 36 36 35 34 35 34 34 34 33 33 32 32 33 32 32 32 32 31 30 30 30 30
33 34 34 35 35 35 36 36 36 36 36 36 35 35 35 35 35 35 35 35 35 35 34 32 32 32 32 33 32 32 32 31 31 30 30 31 31 31 31 30 29 29 29 28

GEFSNGP_500_meanwind_264.txt.gz
Wind_Speed
19 19 19 19 19 19 19 19 19 19 19 20 20 20 20 20 20 20 19 19 20 20 20 21 21 21 21 21 21 21 21 21 21 20 19 19 19 19 19 19 19 18 18 19
19 19 19 19 19 19 20 20 21 20 20 20 21 21 21 21 21 21 20 20 21 21 22 22 22 22 22 22 23 23 23 23 22 22 21 21 20 20 20 20 20 20 20 19
20 20 20 20 20 21 21 22 22 22 21 22 22 22 22 22 22 22 22 22 22 22 23 23 23 24 24 24 24 24 24 24 24 24 23 23 22 22 22 22 22 21 21 21
21 21 21 21 20 21 22 23 23 23 23 22 22 22 23 23 23 23 23 23 23 23 24 24 25 25 25 25 26 25 25 25 25 25 25 25 25 25 24 24 24 23 23 23
22 23 23 22 22 22 23 23 24 24 24 24 23 23 23 24 24 25 25 25 25 25 25 25 26 27 27 27 27 26 26 27 27 27 27 27 27 27 26 26 26 26 26 25
23 24 24 23 22 23 24 24 23 25 25 25 25 26 25 25 25 26 26 26 27 26 27 27 27 28 28 28 29 29 28 28 29 29 29 28 29 29 29 28 28 28 28 27
24 24 24 24 23 23 24 25 24 25 26 27 27 27 26 26 26 27 28 28 28 28 28 28 28 28 29 29 30 30 29 29 29 30 30 30 30 30 30 31 31 31 30 30
24 25 25 25 24 24 25 25 26 26 26 27 27 27 27 28 28 28 29 29 29 29 29 29 30 29 30 30 31 31 31 31 31 31 31 31 32 32 32 32 33 33 33 32
25 26 26 25 24 25 25 26 27 27 28 28 28 28 28 29 29 29 29 30 30 30 30 31 31 31 31 31 32 32 32 32 33 34 34 34 34 34 34 34 34 34 34 34
27 27 27 27 26 27 28 28 28 28 28 29 29 30 30 30 30 30 30 31 31 31 32 32 32 33 33 33 33 34 34 34 35 35 35 35 36 36 36 36 35 35 35 35
29 29 29 29 29 29 29 29 29 29 29 30 30 31 32 31 31 31 32 32 32 33 33 33 33 33 34 34 34 35 35 36 36 36 35 36 36 37 37 37 37 37 37 36
30 30 31 30 31 31 31 30 31 31 31 31 31 32 32 32 32 32 33 33 34 34 34 35 35 35 35 35 36 36 37 37 38 37 37 36 36 36 37 38 38 38 37 37
31 31 31 31 32 32 32 32 32 32 32 32 32 33 33 32 33 33 34 35 35 35 35 35 36 36 36 36 37 37 38 39 39 39 38 38 38 38 38 38 38 38 38 38
32 32 32 32 32 32 32 32 33 33 34 34 34 33 33 33 34 34 35 35 35 35 36 36 35 35 36 37 38 38 39 40 40 40 39 39 39 39 39 39 38 38 39 39
31 32 32 32 32 31 31 32 32 32 32 32 32 32 33 34 35 35 35 35 35 36 36 36 36 36 37 38 39 39 39 39 39 40 40 40 40 40 40 39 39 39 39 40
30 31 31 31 31 32 32 32 32 32 32 32 32 33 34 34 35 35 35 36 36 36 36 36 36 37 37 38 39 40 40 39 39 40 40 41 41 41 41 41 41 40 40 40
30 30 31 31 31 31 32 32 33 33 33 33 33 33 34 35 35 36 36 36 36 36 36 36 37 36 37 38 39 40 40 40 40 40 41 42 43 43 42 42 41 40 40 40
31 31 31 31 31 31 32 32 32 33 33 33 34 34 35 36 36 36 36 36 36 36 36 37 37 38 38 39 39 39 39 40 40 40 41 42 42 42 41 41 41 40 40 40
31 31 31 32 32 32 32 32 32 33 33 33 34 34 35 36 36 37 37 37 37 37 37 37 38 38 38 39 39 39 40 40 40 40 41 41 40 40 40 40 40 40 40 40
30 30 31 32 32 31 32 32 33 34 34 34 35 35 36 37 37 37 37 37 37 37 37 37 38 38 38 38 39 39 40 40 40 41 40 40 39 39 39 40 40 40 40 40
29 30 31 31 31 31 32 33 33 33 34 34 35 35 36 36 37 37 37 37 36 36 37 37 38 37 38 38 39 39 40 40 40 40 40 39 39 39 38 39 39 39 39 39
30 30 30 30 30 31 32 33 33 34 34 34 34 35 35 35 36 36 36 36 36 36 36 37 37 38 38 39 39 39 39 39 39 39 39 38 38 38 38 38 39 39 39 39
31 30 30 31 31 31 32 32 33 34 34 34 34 34 35 35 36 36 36 36 36 36 36 37 37 37 38 38 38 38 39 39 38 38 38 37 37 37 37 37 38 38 38 38
31 31 31 31 31 32 32 33 33 34 34 33 33 34 34 35 35 36 36 36 36 36 36 36 36 36 36 37 37 37 37 37 37 36 36 35 35 35 35 36 36 36 36 36
31 31 31 31 31 32 32 32 32 32 32 33 33 33 34 34 35 35 35 34 34 35 35 35 35 35 35 35 35 35 35 35 34 34 33 32 33 33 34 34 34 34 34 34
31 31 31 31 31 31 31 32 32 32 32 33 33 33 34 34 34 34 34 34 33 33 34 34 34 34 34 33 33 32 32 32 32 31 31 31 31 32 32 33 33 33 33 33
30 30 30 30 31 32 33 33 33 33 34 34 34 34 34 34 34 34 33 33 33 33 33 33 32 32 32 31 31 30 30 30 30 30 30 30 30 30 31 31 31 31 31 31

GEFSNGP_500_meanwind_270.txt.gz
Wind_Speed
19 21 22 22 21 21 21 21 22 21 23 24 25 25 25 25 24 25 25 24 23 23 23 23 23 23 23 23 24 24 24 24 24 24 23 23 23 23 22 21 21 21 21 21
20 20 23 23 22 22 22 22 22 22 23 24 25 26 26 26 25 25 25 25 24 24 24 24 24 24 25 25 25 25 25 25 25 25 25 25 25 25 24 23 23 23 22 22
21 21 23 24 22 23 23 23 23 23 24 25 26 26 27 27 27 26 26 26 26 26 26 26 26 26 25 25 26 26 25 26 26 26 26 26 26 26 25 25 24 24 24 24
22 22 23 22 21 22 23 23 25 25 26 26 26 27 27 27 27 27 26 26 26 27 27 27 27 27 26 26 26 27 27 27 27 27 27 27 27 27 27 27 26 27 26 26
23 23 23 23 22 22 23 24 25 26 26 27 27 28 27 27 26 26 26 26 26 27 27 27 27 27 27 28 27 28 28 28 28 28 28 28 28 28 28 28 29 29 29 29
23 24 24 23 22 22 24 25 24 25 26 26 27 29 28 29 28 28 28 28 28 28 28 28 28 28 28 28 28 29 29 29 29 29 29 29 29 29 30 30 30 30 29 29
24 25 25 24 23 23 24 25 25 25 26 26 27 28 29 29 29 29 29 29 29 29 29 29 29 29 30 30 30 30 30 30 30 30 30 31 31 31 31 32 32 31 31 31
25 25 25 25 25 25 26 26 26 26 27 28 28 28 29 30 30 30 30 30 30 30 30 30 30 30 30 31 31 31 31 31 32 32 32 32 33 33 33 33 33 33 33 33
26 27 27 27 27 27 28 28 28 28 29 30 30 30 30 31 32 32 31 31 31 31 31 31 31 31 31 31 31 32 32 33 33 33 34 34 34 34 34 34 34 35 35 35
27 28 28 29 29 29 30 30 30 30 31 31 31 32 32 32 33 32 32 32 32 33 33 33 32 32 32 32 32 32 33 33 34 34 34 35 35 35 35 35 36 35 36 36
29 29 30 30 30 30 31 31 32 32 32 33 33 33 33 33 33 33 33 33 33 34 34 34 34 34 34 34 34 33 33 34 34 34 35 35 35 35 36 36 37 37 36 37
31 31 32 33 33 33 33 33 33 33 33 34 34 33 33 33 34 34 34 34 35 36 36 36 36 36 36 36 36 36 35 34 34 34 35 35 36 36 36 37 37 38 37 38
33 34 34 34 34 34 34 34 34 34 34 34 34 34 34 34 34 35 35 36 36 36 36 36 36 37 37 38 37 37 37 36 36 35 36 36 37 37 38 38 38 38 38 39
34 34 35 34 35 35 35 35 35 35 35 34 34 34 35 35 35 35 35 36 36 36 37 37 37 38 38 38 38 37 37 37 37 37 37 37 38 38 39 39 39 39 40 40
33 34 35 35 35 36 35 35 36 35 35 34 34 34 34 34 34 34 34 35 36 36 37 37 37 37 37 37 37 37 38 38 38 38 38 39 39 39 39 39 39 40 41 41
33 33 34 34 35 36 36 35 35 35 35 35 34 34 34 34 34 34 34 35 36 36 37 37 37 36 36 37 37 37 38 38 38 39 39 40 40 40 40 40 40 41 42 41
33 33 33 33 34 34 34 35 35 35 35 35 35 35 35 35 35 35 35 36 36 36 37 37 36 36 37 37 38 38 38 38 38 39 39 40 40 40 40 40 41 41 41 41
33 33 33 33 34 34 35 35 35 35 35 35 36 36 36 36 36 36 37 37 37 37 37 37 36 36 37 37 38 38 38 38 39 39 39 40 40 40 40 40 41 41 41 41
33 33 33 34 34 35 35 36 36 35 35 35 36 36 36 36 37 37 37 37 37 37 36 36 36 37 37 37 38 38 39 39 39 39 40 40 40 41 41 41 41 41 41 41
33 33 34 34 34 35 35 36 36 36 36 36 36 36 36 36 37 36 36 36 36 37 36 36 36 37 37 37 38 38 38 39 40 40 40 41 40 40 41 41 41 41 40 40
33 34 35 35 35 36 36 36 36 36 36 37 37 37 37 36 36 36 36 36 37 37 37 36 36 37 37 38 38 38 39 40 40 40 40 40 40 40 40 40 40 40 39 39
33 33 34 34 34 34 34 34 35 35 36 36 36 36 36 36 36 36 36 36 36 36 36 36 36 37 38 38 38 38 39 39 39 39 39 39 39 39 39 39 39 38 38 38
32 33 33 33 33 33 32 32 34 34 34 34 34 34 35 35 35 35 35 35 35 35 36 37 37 37 38 38 38 38 38 38 38 38 38 39 39 39 39 38 38 37 38 38
32 33 33 33 33 32 32 33 33 33 33 33 34 34 34 34 35 35 35 35 35 35 36 36 37 37 37 37 37 37 37 37 37 38 38 38 38 38 38 37 37 37 37 37
34 34 34 33 33 33 33 33 33 33 33 33 33 33 33 34 34 34 34 34 34 35 35 35 35 35 35 35 35 36 36 36 36 36 36 36 36 35 35 35 35 35 35 35
35 35 35 34 34 34 34 34 33 33 32 32 32 32 33 33 33 33 33 33 34 34 34 34 34 34 35 35 35 35 34 34 34 34 33 33 33 33 33 32 32 32 32 32
35 35 35 35 35 35 34 34 34 34 33 33 33 33 33 32 32 33 33 33 33 34 34 34 34 34 34 34 33 33 33 33 32 32 32 32 31 31 30 30 30 31 31 31

GEFSNGP_500_meanwind_276.txt.gz
Wind_Speed
19 20 20 19 19 20 21 21 21 21 22 21 21 22 22 22 21 20 20 20 21 21 21 21 21 21 22 22 22 23 23 22 22 23 23 22 22 23 22 22 22 22 21 21
20 20 21 20 20 21 22 22 22 22 21 21 22 22 23 23 22 22 22 22 21 21 21 21 21 22 22 23 24 24 24 24 24 24 24 23 23 23 23 23 23 23 22 23
21 21 22 21 20 22 22 22 22 22 21 21 22 22 22 23 23 23 23 24 23 23 22 22 22 23 23 24 25 25 25 25 25 25 25 25 24 24 24 25 24 24 24 24
22 22 22 21 21 22 23 23 23 22 22 22 22 23 24 24 24 24 25 24 25 25 24 24 24 25 25 25 26 26 26 26 26 26 27 27 27 26 27 27 26 26 26 27
22 22 22 21 21 22 23 23 22 22 22 23 23 23 24 24 25 25 25 26 26 26 26 26 26 26 26 26 26 27 27 28 27 27 27 28 28 28 28 28 27 27 28 28
23 23 22 21 21 22 23 22 22 22 23 23 24 24 24 24 25 25 26 27 27 28 28 27 27 28 27 26 27 27 27 27 27 27 28 28 28 28 29 28 28 28 28 28
25 25 24 23 23 23 23 22 22 22 23 23 24 25 25 25 26 26 27 27 28 29 29 30 30 29 29 28 28 27 27 26 27 28 29 29 29 29 30 30 30 30 30 29
26 26 25 24 24 24 24 24 23 23 24 25 25 25 26 27 27 27 28 28 29 29 30 30 31 30 30 29 29 28 28 28 28 29 29 29 30 30 30 30 31 31 31 30
27 27 26 25 25 25 25 25 24 25 25 26 26 27 28 29 29 29 30 30 30 30 30 30 31 31 31 30 30 30 30 30 30 30 30 30 30 31 32 32 32 32 32 32
28 28 28 27 26 26 26 27 27 27 27 28 28 29 30 30 31 31 31 31 31 31 31 30 30 30 31 31 31 31 31 32 31 31 31 31 31 31 32 32 32 32 33 33
29 29 29 29 29 28 28 29 29 29 30 30 31 31 32 32 33 33 33 33 33 32 31 31 30 30 31 31 32 32 33 33 32 32 32 32 32 32 32 32 32 32 33 34
29 29 30 30 30 30 31 31 31 31 32 33 33 34 34 35 35 35 34 34 33 33 32 32 32 32 32 32 33 33 33 33 33 33 33 33 33 33 32 33 33 33 33 34
29 30 30 30 31 32 32 32 33 34 34 34 35 36 36 36 35 35 35 35 34 33 33 33 33 33 33 33 33 33 33 33 34 34 34 34 34 34 34 34 35 35 35 36
30 30 30 30 31 32 34 35 35 35 35 36 37 37 37 36 36 35 35 35 35 34 34 34 34 34 34 34 34 34 34 34 34 34 35 35 35 35 36 36 36 36 37 38
30 30 30 31 32 32 34 35 36 36 36 37 37 37 36 35 35 35 34 34 34 34 34 34 34 35 35 35 35 34 34 34 34 34 35 36 36 36 36 37 37 37 38 38
31 31 31 32 32 33 33 34 35 35 36 36 36 36 35 35 34 34 33 33 33 34 34 34 34 34 34 34 34 34 34 34 34 34 34 35 35 36 37 37 37 37 38 39
31 31 31 32 33 33 33 34 34 35 35 35 36 36 35 35 34 34 34 34 34 34 34 34 33 33 34 34 34 34 34 34 34 34 35 35 36 36 36 37 36 37 37 38
30 31 31 32 33 33 33 33 33 33 34 34 35 35 34 34 34 34 34 34 34 34 34 34 34 34 34 34 34 34 34 34 34 35 35 35 35 36 36 37 37 37 38 38
31 31 31 32 32 33 33 33 33 33 34 34 34 33 34 34 34 34 34 34 34 34 35 35 35 35 35 35 35 35 34 34 34 35 35 35 35 36 37 37 38 38 39 39
31 32 32 32 32 32 33 33 33 34 34 34 33 34 34 34 35 35 35 36 35 35 35 35 35 34 34 34 34 35 35 35 35 35 35 36 36 36 37 37 38 39 40 40
30 31 31 31 31 31 31 32 32 33 33 33 34 34 35 35 35 35 36 36 35 35 35 34 34 34 34 34 34 35 35 36 36 36 36 36 36 36 37 38 38 39 39 40
30 30 29 30 30 30 30 30 31 32 32 33 33 33 33 33 34 34 35 35 34 34 34 33 34 34 34 34 35 35 35 35 35 35 35 36 36 37 37 38 38 38 39 39
30 29 29 29 29 29 29 30 30 31 32 32 32 32 32 32 33 33 33 33 33 34 34 34 34 34 35 35 35 35 34 34 34 34 35 35 36 37 37 38 38 38 38 37
29 29 29 29 29 30 30 30 31 31 31 31 31 31 32 32 33 33 33 33 33 33 33 34 34 34 34 34 34 33 33 33 34 35 35 36 36 37 37 37 37 36 36 35
30 30 30 30 31 31 32 32 32 31 32 32 32 32 33 33 33 33 32 32 32 32 32 33 33 32 32 32 31 31 31 32 32 33 33 34 34 34 34 34 34 34 33 33
32 32 32 33 33 33 33 33 33 33 33 33 33 33 33 33 33 33 32 32 32 32 31 31 31 31 30 30 30 29 29 30 31 32 33 33 33 32 32 32 32 31 31 30
32 32 33 34 34 35 35 34 34 34 34 34 33 33 33 33 33 33 33 33 33 32 32 31 30 30 30 29 30 30 30 31 32 32 32 32 31 31 30 30 29 29 28 28

GEFSNGP_500_meanwind_282.txt.gz
Wind_Speed
20 20 21 21 22 22 22 23 23 22 21 20 21 22 22 23 22 22 22 22 23 23 23 23 23 23 23 23 23 23 23 22 22 22 23 23 23 23 23 23 22 23 23 24
21 21 22 22 22 22 23 24 24 24 22 22 22 23 23 23 23 23 23 24 24 24 23 24 24 24 24 23 24 24 24 24 24 24 24 25 24 25 24 24 24 24 25 25
22 22 23 23 22 23 23 24 25 24 23 23 23 23 24 24 24 24 24 24 24 24 24 24 24 24 24 24 24 25 25 25 25 25 25 26 26 26 26 25 25 25 25 25
23 23 24 23 23 23 23 24 24 24 24 24 24 24 24 24 25 25 24 24 24 24 25 25 25 25 25 25 26 26 27 27 27 26 26 26 26 27 26 26 26 25 25 26
24 25 25 24 23 24 24 24 25 25 25 25 25 24 24 24 25 25 25 25 25 26 26 27 27 27 27 27 27 27 28 28 28 27 27 27 27 27 27 27 27 26 26 26
26 26 25 24 24 25 25 25 25 26 26 25 25 25 24 25 26 27 27 26 27 27 28 28 28 28 28 28 28 28 29 29 29 28 28 28 28 29 29 28 28 27 27 28
26 27 26 25 25 25 26 26 26 27 27 26 26 26 26 27 27 28 28 28 29 29 29 29 29 29 29 29 29 29 30 30 30 30 30 30 29 30 29 28 28 28 28 28
26 26 26 25 26 26 26 26 27 27 27 27 27 27 27 28 28 29 29 30 30 30 31 31 31 31 31 30 30 30 30 31 31 31 31 31 30 30 30 29 29 29 29 28
27 26 26 26 27 27 28 28 28 28 27 28 28 28 28 28 29 30 30 31 31 32 32 32 32 32 32 32 32 32 32 31 31 31 32 32 31 31 30 30 29 29 29 29
28 28 28 28 29 29 29 29 29 29 29 29 30 30 30 30 30 31 32 32 33 34 34 34 34 34 33 33 33 34 33 32 32 32 32 32 31 31 31 30 30 30 30 30
27 28 29 29 30 30 31 31 31 31 31 31 31 31 32 32 33 33 33 34 34 34 34 35 35 35 34 34 34 34 34 34 33 33 33 33 32 31 32 32 32 32 32 32
28 28 29 29 30 31 31 32 33 33 33 33 33 33 34 34 34 34 34 35 35 36 36 35 36 35 35 35 34 34 34 34 33 32 32 32 32 32 32 32 32 33 33 33
29 29 29 29 30 31 31 32 32 33 33 34 34 35 35 35 35 35 35 36 36 36 36 36 35 35 35 34 34 34 33 33 33 32 32 32 31 32 32 33 33 34 34 34
28 29 29 30 30 31 32 33 33 33 33 34 34 34 35 35 36 35 35 36 36 36 36 35 34 34 34 34 34 33 33 33 32 32 32 32 32 32 33 34 34 34 34 35
29 30 30 30 30 32 33 33 34 34 34 34 34 35 35 35 36 36 35 35 35 35 35 34 34 34 34 33 33 33 32 33 32 32 32 32 32 32 33 34 34 35 35 36
30 31 32 32 32 33 33 34 34 34 34 35 35 35 35 36 35 35 35 35 35 35 34 34 33 34 33 32 32 32 33 33 33 33 33 33 33 33 33 34 35 35 35 36
32 32 33 34 33 33 34 34 34 34 34 34 34 34 35 35 35 35 35 35 35 36 36 35 35 35 35 34 34 34 34 34 34 34 34 34 34 34 34 34 35 35 36 37
32 32 32 32 32 33 33 33 34 34 33 34 34 34 34 35 35 35 35 35 35 35 36 36 36 36 36 36 35 35 35 35 35 35 35 35 36 36 35 35 35 36 36 37
32 32 32 32 33 33 34 34 34 34 34 34 34 34 34 34 34 34 34 34 35 35 35 36 36 36 36 36 35 35 35 35 35 35 35 36 36 36 36 36 36 36 36 37
32 33 33 33 33 33 34 34 34 34 34 34 35 35 34 34 34 34 34 34 35 35 35 35 35 34 35 35 35 35 35 35 35 35 35 35 35 36 36 36 37 37 37 37
32 33 33 33 33 34 34 34 34 34 34 35 35 35 35 35 34 34 34 35 35 35 35 35 35 35 35 35 35 35 35 35 35 35 34 35 35 35 35 36 36 37 37 37
33 33 34 34 34 34 34 34 34 35 35 36 36 36 36 35 34 34 34 35 35 35 35 35 35 35 35 35 35 35 35 35 34 34 34 34 34 34 35 35 36 36 36 37
32 33 33 34 33 33 33 34 34 34 35 35 35 35 34 34 33 33 33 34 34 35 35 34 34 34 34 34 34 34 34 34 34 34 34 34 35 35 35 35 35 35 35 36
32 33 33 33 33 33 33 34 34 35 35 35 35 34 33 33 33 33 33 33 33 33 33 33 33 33 33 33 33 32 33 33 33 34 34 35 35 35 34 34 34 34 34 35
32 33 33 33 34 34 34 35 36 36 36 35 34 34 34 33 32 32 32 32 32 32 32 32 32 32 32 32 32 32 32 32 32 33 34 34 34 33 33 32 32 33 33 33
33 33 33 33 34 34 35 36 36 36 35 35 34 33 32 32 32 32 32 33 33 33 33 32 31 31 31 30 30 31 31 31 31 32 32 32 32 32 31 31 31 31 32 31
33 33 33 34 34 35 35 36 35 35 34 33 32 32 32 32 33 33 33 33 33 33 33 32 32 31 31 31 31 31 31 31 31 31 31 31 30 30 29 29 30 30 29 30

GEFSNGP_500_meanwind_288.txt.gz
Wind_Speed
19 19 19 19 19 19 20 20 21 21 21 20 20 21 21 22 22 23 23 23 22 22 22 23 23 23 23 23 23 23 23 23 24 23 23 24 24 23 23 24 24 24 24 24
20 20 20 20 20 21 21 21 21 21 21 21 22 22 22 23 23 23 23 23 23 23 23 23 23 24 23 23 24 24 24 24 24 24 24 24 25 24 24 24 25 25 25 25
21 22 22 22 21 21 21 22 22 22 22 22 23 23 23 24 24 24 24 24 23 23 24 24 24 24 24 24 25 25 25 25 25 25 25 25 25 25 25 26 26 26 26 26
22 22 23 22 21 21 22 22 23 23 23 23 24 24 24 25 25 25 25 25 25 25 25 25 25 26 25 25 25 26 26 26 26 26 26 26 26 26 26 26 26 27 27 27
22 23 23 22 22 22 22 22 23 23 23 23 24 25 25 25 25 25 25 26 26 26 26 26 26 26 26 26 26 27 27 27 27 27 27 27 27 27 27 27 26 26 26 26
23 23 23 23 23 22 23 23 22 23 23 24 24 25 25 26 26 26 26 26 27 27 27 27 27 27 27 27 28 28 28 28 28 28 28 28 28 28 28 27 27 27 27 26
24 25 24 23 23 23 23 23 23 23 24 25 25 26 26 27 27 27 28 28 28 28 28 28 28 29 29 29 29 30 30 30 30 30 30 30 30 29 29 28 28 28 27 27
25 25 26 23 23 23 24 24 24 24 25 25 26 26 27 27 28 28 29 29 29 30 30 30 30 30 30 31 31 31 31 31 31 31 32 32 31 30 30 29 28 28 28 28
26 26 26 26 25 25 25 25 25 25 25 26 26 26 27 28 28 29 30 30 30 31 31 31 31 31 32 32 32 32 32 32 32 32 32 32 32 31 31 30 29 29 30 30
26 26 27 27 27 26 25 26 26 26 27 27 27 27 28 29 29 30 30 31 31 31 31 31 32 32 33 33 33 33 33 32 32 32 32 32 32 32 32 31 31 31 31 30
25 26 27 27 27 27 26 27 27 28 28 28 28 28 28 29 31 31 31 31 31 31 32 32 32 33 33 34 33 33 33 33 33 32 32 32 32 32 32 32 32 32 31 32
26 26 27 27 27 27 26 26 27 27 28 28 28 28 29 30 31 31 31 32 32 32 33 33 33 33 33 34 34 33 33 33 33 33 33 32 33 32 32 32 32 33 32 32
27 28 28 28 28 27 27 27 27 27 28 29 29 30 31 31 32 32 32 32 33 33 33 34 33 33 33 33 33 34 34 34 34 33 33 32 32 33 33 32 32 32 32 33
28 28 28 28 28 28 28 28 28 28 28 29 30 31 32 32 32 33 33 33 34 34 34 34 34 34 34 34 34 34 34 35 34 34 33 33 33 33 33 33 32 32 33 33
28 28 28 28 28 28 28 28 28 28 28 29 30 31 32 32 33 33 33 34 34 34 33 33 34 34 34 35 35 34 35 35 34 34 34 34 34 33 33 33 33 33 33 33
28 28 28 28 28 28 29 29 29 29 29 29 30 30 31 31 31 32 33 33 34 34 34 34 35 35 35 35 34 34 34 34 34 34 34 34 33 33 33 34 33 33 34 34
29 29 29 29 29 29 29 29 28 29 29 30 30 31 31 31 31 32 33 33 33 33 33 33 33 33 33 33 33 33 33 33 33 34 34 33 33 33 33 33 33 33 34 34
29 29 29 30 30 30 30 30 30 30 30 31 31 31 32 32 32 32 32 32 32 32 33 33 33 33 33 33 33 32 32 32 32 32 32 32 32 32 32 33 33 33 34 34
29 29 29 30 30 30 30 30 30 30 31 31 31 32 32 32 32 32 31 31 31 32 32 32 33 33 32 31 31 31 30 30 30 30 30 31 31 32 33 34 34 34 34 34
28 29 29 30 30 31 31 31 31 31 31 32 32 32 32 32 32 32 32 32 31 32 32 32 32 32 31 31 30 30 31 31 31 31 31 32 32 32 33 33 33 33 34 34
28 28 29 30 30 31 32 32 32 32 32 32 32 32 33 33 32 32 32 32 32 33 33 32 32 31 31 31 31 31 31 30 31 31 31 31 31 32 33 33 34 34 34 34
28 29 29 29 30 31 31 32 32 32 32 32 32 32 32 32 32 32 32 33 33 33 33 32 32 31 31 31 30 30 30 30 30 31 31 32 32 33 33 33 33 33 34 34
29 29 29 29 29 30 30 31 31 31 32 32 32 31 31 31 32 32 32 33 33 33 33 33 32 32 32 32 31 31 31 31 31 32 32 32 33 33 33 33 32 33 32 32
29 29 29 30 30 30 30 30 30 31 32 32 32 32 31 31 32 32 33 33 33 33 33 32 32 32 32 32 32 32 32 32 32 32 32 32 33 33 32 32 32 32 31 31
31 31 31 31 31 31 30 30 30 31 32 31 31 31 31 31 32 32 32 32 32 32 32 31 31 31 31 31 31 31 31 32 32 32 32 32 31 32 31 31 31 31 30 30
31 31 31 31 31 31 31 31 31 31 31 31 31 32 32 32 32 32 31 31 31 31 30 30 30 30 30 30 31 31 31 31 30 30 30 30 30 30 30 29 29 29 29 29
32 32 32 31 32 32 32 32 32 32 31 31 31 32 32 32 32 31 31 31 31 30 30 30 30 30 30 30 29 29 29 29 29 29 29 29 29 29 29 29 29 28 27 27

GEFSNGP_500_meanwind_294.txt.gz
Wind_Speed
19 20 20 20 20 21 21 21 22 22 23 23 24 25 24 25 25 25 24 24 24 24 24 24 25 25 25 25 25 25 25 25 25 25 25 25 25 24 25 25 25 24 24 24
21 21 22 22 22 22 22 22 22 23 24 24 24 25 25 26 25 25 25 25 25 25 26 26 26 26 26 26 26 26 26 26 26 25 25 25 25 25 25 25 25 25 25 25
23 22 23 22 22 22 23 23 24 24 25 25 25 25 25 25 26 26 26 26 26 27 28 28 28 27 27 28 28 27 27 27 27 27 26 26 26 26 26 26 26 26 26 26
23 23 23 22 22 23 23 23 24 25 25 26 27 27 26 26 27 28 28 27 28 28 28 28 28 28 29 29 29 28 28 28 28 28 28 28 28 28 28 27 27 27 27 27
24 24 24 23 23 24 24 24 24 24 24 25 26 26 27 27 27 28 29 29 29 29 29 29 29 30 30 30 29 29 29 29 29 29 29 29 29 29 29 28 28 29 28 28
25 25 25 24 23 24 24 24 23 24 24 25 26 26 27 28 28 28 29 29 30 30 30 30 30 31 31 30 31 30 30 30 30 30 30 30 30 30 30 30 29 29 29 29
26 26 27 26 25 25 25 25 25 25 26 27 27 27 28 28 28 29 30 30 30 31 31 31 31 31 31 31 31 32 31 31 31 31 31 32 32 32 32 31 31 30 30 29
25 26 27 26 27 26 26 26 27 27 27 28 28 28 29 29 30 31 31 31 31 32 32 32 32 32 32 32 32 32 32 33 32 33 33 33 33 32 32 32 32 31 31 30
26 26 26 25 27 28 28 28 28 27 27 28 29 29 30 31 31 31 31 32 32 32 32 33 32 32 32 33 33 33 33 33 33 33 34 34 34 33 32 32 32 32 32 31
26 27 27 27 27 28 28 28 29 29 28 28 29 30 30 30 31 31 32 32 32 33 33 33 33 33 33 34 34 34 34 34 34 34 34 34 35 34 33 33 33 33 32 32
27 28 29 29 29 29 29 29 29 30 30 30 30 30 30 31 31 32 32 33 33 33 33 33 33 33 33 34 34 34 34 33 33 34 34 34 34 34 34 34 34 34 33 33
28 28 28 29 30 30 30 30 31 31 31 31 31 30 30 30 31 31 32 32 32 33 33 33 33 33 33 34 34 33 33 33 32 32 33 33 33 33 33 33 34 34 33 33
30 29 29 29 29 30 30 30 31 31 31 32 32 31 31 31 31 31 31 32 32 33 33 33 33 33 33 33 33 33 33 33 32 32 33 34 34 34 33 33 33 33 32 33
31 31 30 30 30 30 30 30 31 31 31 32 32 31 31 31 31 32 32 33 33 33 33 33 33 33 33 33 33 33 33 33 33 33 33 34 34 34 34 33 34 33 32 33
31 31 31 31 31 31 31 31 31 31 31 32 32 33 32 32 32 33 33 33 33 33 33 33 33 33 33 33 33 33 34 34 34 34 34 34 33 33 32 33 33 32 32 32
31 31 32 32 32 32 32 32 32 32 32 32 33 33 33 33 33 33 33 33 33 32 33 33 33 33 33 33 34 34 34 34 34 34 34 33 32 32 31 32 32 32 32 32
31 31 31 32 32 33 33 33 32 33 33 33 33 33 33 33 33 33 33 33 33 33 33 33 34 34 34 34 34 34 34 34 34 34 34 33 32 32 32 31 31 31 31 32
31 31 31 32 32 33 33 33 33 34 34 34 34 34 34 34 34 33 33 33 33 34 34 34 34 34 34 34 34 34 33 33 33 34 33 32 32 32 32 32 32 32 32 32
30 31 31 32 32 32 33 33 33 33 34 34 33 33 34 35 35 35 34 33 34 34 34 34 34 34 34 34 33 33 33 33 33 32 32 33 32 32 32 32 32 32 33 33
31 31 31 31 32 32 33 33 33 34 34 34 34 34 34 35 35 36 35 35 34 34 34 35 35 35 35 34 34 34 34 34 34 34 34 33 33 33 33 33 34 34 34 34
30 30 31 31 32 32 33 33 33 34 34 34 34 35 35 35 36 36 36 35 35 35 35 35 35 34 34 35 35 35 34 34 33 33 33 33 33 33 33 33 33 34 34 34
30 30 30 31 32 33 33 34 34 34 34 34 35 35 36 36 36 37 36 35 35 35 35 35 35 35 35 35 35 35 34 34 33 33 33 33 33 33 33 33 33 33 33 33
30 31 31 31 31 31 32 32 33 33 33 34 34 35 36 36 36 36 35 35 35 35 35 35 35 35 36 35 35 34 34 34 33 33 33 33 34 34 33 33 33 33 33 32
31 31 31 31 31 31 32 32 32 33 33 34 35 35 36 36 35 35 35 35 35 35 35 35 35 35 35 35 35 34 34 34 34 34 33 34 34 34 34 33 33 32 31 31
32 32 32 32 32 32 32 33 33 33 34 34 35 35 35 35 35 35 35 35 35 35 35 35 35 35 35 35 34 34 33 34 34 34 33 33 34 34 33 33 32 32 31 30
33 33 33 33 33 33 33 33 34 34 34 35 35 36 36 35 35 35 35 35 35 35 35 35 35 35 35 34 34 33 33 34 34 33 33 33 33 33 32 32 31 30 29 29
33 33 33 34 34 34 34 34 35 35 35 35 36 36 36 36 36 35 35 35 35 35 35 35 35 35 35 34 34 34 33 33 33 32 32 32 33 32 31 31 30 29 28 28

GEFSNGP_500_meanwind_300.txt.gz
Wind_Speed
18 18 18 19 19 19 20 20 20 19 20 19 19 20 20 20 20 20 20 19 19 20 20 21 21 21 22 22 22 23 23 23 24 25 25 25 25 25 25 24 24 24 23 23
19 19 20 20 20 20 20 21 21 21 21 21 22 21 21 21 21 21 21 21 21 21 21 21 22 22 22 23 24 25 25 24 25 25 26 26 26 26 26 26 25 25 25 24
20 20 21 21 21 22 22 21 21 21 20 21 23 23 23 22 21 21 22 22 22 22 23 23 24 24 24 24 25 25 26 26 26 27 27 27 27 27 26 26 26 26 26 26
21 21 22 20 21 22 22 22 21 21 21 22 22 23 23 23 23 23 23 23 23 24 24 24 25 26 26 26 27 27 28 28 28 28 28 28 28 27 27 27 27 28 28 28
22 23 23 22 21 22 22 22 22 21 21 22 23 24 24 24 24 23 23 23 24 24 25 26 26 27 28 28 28 29 29 30 30 30 30 29 28 28 28 29 29 29 29 29
24 23 23 21 21 22 23 23 22 22 22 21 22 23 23 23 24 24 24 25 25 26 26 27 28 28 29 29 29 29 30 30 30 30 30 29 29 29 30 30 30 30 30 30
24 24 23 22 21 22 23 23 22 22 22 22 23 23 24 24 25 25 26 26 27 27 27 28 28 29 29 29 30 30 30 30 29 29 29 29 29 30 30 30 30 30 31 31
23 24 23 22 23 23 23 23 23 23 23 23 24 25 25 25 26 26 26 27 28 28 29 29 29 30 30 30 30 30 30 30 30 29 29 29 29 29 30 30 30 30 30 30
25 24 24 23 23 24 24 25 25 24 24 25 25 25 26 26 26 26 26 26 28 29 29 30 30 30 31 31 31 31 31 31 30 29 29 29 29 29 29 30 30 30 30 30
25 25 25 25 25 25 25 25 25 25 25 26 27 26 27 27 28 27 26 26 27 28 29 30 31 31 32 31 31 31 31 30 30 30 30 30 30 30 30 29 30 30 30 29
25 25 26 26 27 27 26 26 26 27 27 28 28 28 28 28 29 29 29 29 29 29 30 30 31 31 31 31 31 31 30 30 30 31 31 30 30 30 30 30 29 29 29 29
27 27 28 27 27 27 28 28 28 28 28 28 29 29 29 29 30 30 30 30 30 31 31 31 31 31 31 31 31 31 31 30 30 30 30 30 29 29 30 30 30 31 31 31
28 28 28 28 28 28 29 29 30 30 30 30 30 31 30 31 31 31 31 31 31 30 31 31 31 31 31 31 31 30 30 30 30 30 30 30 30 31 31 31 31 32 32 31
30 30 30 30 30 30 30 30 31 31 31 31 31 31 31 31 32 32 33 32 31 31 31 31 31 31 31 30 30 30 30 30 30 30 31 31 32 32 32 32 32 32 32 32
30 30 31 31 31 31 31 31 31 30 30 31 32 32 32 32 32 32 32 32 33 32 31 31 31 31 31 31 30 30 30 31 31 31 32 32 32 33 33 33 33 32 32 32
29 29 29 30 30 30 31 31 31 30 31 31 32 32 32 33 33 33 33 33 33 32 32 32 32 32 31 31 31 31 32 32 32 33 33 33 33 33 33 33 33 32 32 32
28 29 29 29 29 29 29 30 31 31 31 32 32 32 33 33 33 33 34 34 33 32 32 32 32 32 32 33 33 33 33 33 34 34 34 34 34 34 34 34 34 33 33 33
28 28 29 29 30 29 29 30 30 31 31 32 32 33 33 33 33 33 33 33 33 33 33 33 33 33 33 34 34 34 34 34 35 35 35 35 34 35 35 35 34 34 34 34
27 27 28 29 29 29 29 30 31 31 31 32 33 33 33 33 33 33 33 33 33 33 33 34 34 35 34 34 34 34 34 35 35 35 35 35 35 35 34 34 34 34 34 33
27 27 28 28 28 28 29 29 30 31 31 31 32 32 33 33 32 33 34 34 34 34 33 34 34 34 34 34 35 35 35 35 35 35 35 34 34 34 34 33 34 34 34 34
27 27 27 28 28 28 28 29 29 30 30 31 31 32 32 33 33 33 34 34 34 34 33 34 34 34 34 34 35 35 35 35 35 34 34 33 33 33 33 33 33 33 33 33
27 27 27 28 28 28 29 29 29 29 30 30 31 32 32 32 32 33 33 34 34 34 34 34 34 35 35 35 36 36 35 35 34 33 32 32 32 32 32 32 32 32 32 33
28 28 28 29 28 28 29 29 30 30 30 30 31 31 31 31 32 33 33 34 34 34 35 35 35 36 36 36 36 36 35 34 33 32 32 32 32 33 32 32 32 32 32 32
29 29 30 30 30 30 30 30 31 31 30 31 31 31 32 32 33 33 33 33 33 34 35 35 35 35 36 36 35 35 34 33 32 32 31 31 31 32 32 32 32 32 32 31
30 30 31 31 31 32 32 31 31 31 31 31 31 31 31 32 32 32 33 33 34 34 35 35 35 35 35 34 34 33 33 33 32 32 32 31 32 32 31 31 32 32 31 31
33 33 33 33 32 32 32 32 32 31 32 32 32 32 32 33 33 33 34 35 35 36 36 36 35 35 34 33 33 33 33 32 32 33 33 33 33 32 32 31 31 31 31 30
33 34 33 33 33 33 32 32 32 32 32 32 32 33 34 34 35 35 36 36 37 37 36 35 35 34 34 34 34 33 33 33 33 33 33 33 32 32 32 31 31 31 30 30